Change the Weather History Date:

Tuesday, July 24, 2012

  Actual Average Record
Temperature  
Mean Temperature 83 °F 76 °F  
Max Temperature 102 °F 91 °F 104 °F (2014)
Min Temperature 64 °F 61 °F 47 °F (1988)
Degree Days  
Heating Degree Days 0 0  
Month to date heating degree days 0 0  
Since 1 June heating degree days 5 59  
Since 1 July heating degree days 0 0  
Cooling Degree Days 18 11  
Month to date cooling degree days 347 244  
Year to date cooling degree days 735 403  
Since 1 June cooling degree days 681 381  
Growing Degree Days 33 (Base 50)    
Moisture  
Dew Point 47 °F    
Average Humidity 32    
Maximum Humidity 52    
Minimum Humidity 12    
Precipitation  
Precipitation 0.00 in 0.09 in 1.44 in (1983)
Month to date precipitation 1.75 2.32  
Year to date precipitation 5.84 12.26  
Sea Level Pressure  
Sea Level Pressure 29.75 in    
Wind  
Wind Speed 10 mph (WNW)    
Max Wind Speed 18 mph    
Max Gust Speed 23 mph    
Visibility 10 miles    
Events      
T = Trace of Precipitation, MM = Missing Value Source: NWS Daily Summary

Daily Weather History Graph

Daily Weather History Graph

Search for Another Location

Airport or City:

Trip Planner

Search our weather history database for the weather conditions in past years. The results will help you decide how hot, cold, wet, or windy it might be!

Date:

Astronomy

Jul. 24, 2012 Rise Set
Actual Time 5:40 AM MDT 8:15 PM MDT
Civil Twilight 5:08 AM MDT 8:47 PM MDT
Nautical Twilight 4:29 AM MDT 9:26 PM MDT
Astronomical Twilight 3:44 AM MDT 10:11 PM MDT
Moon 11:44 AM MDT (7/24) 11:01 PM MDT (7/24)
Length of Visible Light 15h 38m
Length of Day
14h 35m
Waxing Crescent, 32% of the Moon is Illuminated
Jul 24
Waxing Crescent
Jul 26
First Quarter
Aug 1
Full
Aug 9
Last Quarter
Aug 17
New

Hourly Weather History & Observations

Time (MDT) Temp. Dew Point Humidity Pressure Visibility Wind Dir Wind Speed Gust Speed Precip Events Conditions
12:53 AM 77.0 °F 48.9 °F 37% 29.83 in 10.0 mi SSW 10.4 mph - N/A   Clear
1:53 AM 71.1 °F 48.0 °F 44% 29.83 in 10.0 mi SW 9.2 mph - N/A   Clear
2:53 AM 66.0 °F 48.0 °F 52% 29.82 in 10.0 mi WSW 9.2 mph - N/A   Clear
3:53 AM 66.9 °F 48.0 °F 51% 29.81 in 10.0 mi WNW 8.1 mph - N/A   Clear
4:53 AM 66.9 °F 48.9 °F 52% 29.81 in 10.0 mi WNW 9.2 mph - N/A   Clear
5:53 AM 68.0 °F 48.9 °F 50% 29.82 in 10.0 mi WNW 12.7 mph - N/A   Clear
6:53 AM 72.0 °F 48.9 °F 44% 29.83 in 10.0 mi WNW 12.7 mph - N/A   Clear
7:53 AM 81.0 °F 50.0 °F 34% 29.81 in 10.0 mi NW 11.5 mph - N/A   Clear
8:53 AM 88.0 °F 50.0 °F 27% 29.81 in 10.0 mi NW 16.1 mph - N/A   Clear
9:53 AM 93.0 °F 48.0 °F 21% 29.79 in 10.0 mi NW 13.8 mph - N/A   Clear
10:53 AM 95.0 °F 45.0 °F 18% 29.78 in 10.0 mi NNW 15.0 mph 19.6 mph N/A   Clear
11:53 AM 98.1 °F 45.0 °F 16% 29.76 in 10.0 mi NW 10.4 mph 19.6 mph N/A   Clear
12:53 PM 99.0 °F 45.0 °F 16% 29.75 in 10.0 mi NNW 10.4 mph - N/A   Clear
1:53 PM 96.1 °F 45.0 °F 17% 29.74 in 10.0 mi Variable 4.6 mph - N/A   Clear
2:53 PM 100.0 °F 45.0 °F 15% 29.71 in 10.0 mi Variable 4.6 mph - N/A   Partly Cloudy
3:53 PM 99.0 °F 44.1 °F 15% 29.70 in 10.0 mi SSE 9.2 mph - N/A   Mostly Cloudy
4:53 PM 100.9 °F 44.1 °F 14% 29.67 in 10.0 mi SE 6.9 mph 21.9 mph N/A   Scattered Clouds
5:53 PM 100.0 °F 39.0 °F 12% 29.66 in 10.0 mi South 9.2 mph 18.4 mph N/A   Clear
6:53 PM 93.0 °F 44.1 °F 18% 29.67 in 10.0 mi SSE 9.2 mph - N/A   Clear
7:53 PM 86.0 °F 50.0 °F 29% 29.68 in 10.0 mi NW 11.5 mph - N/A   Partly Cloudy
8:53 PM 81.0 °F 50.0 °F 34% 29.69 in 10.0 mi NNW 8.1 mph - N/A   Clear
9:53 PM 81.0 °F 50.0 °F 34% 29.71 in 10.0 mi WNW 13.8 mph 19.6 mph N/A   Clear
10:53 PM 75.9 °F 51.1 °F 42% 29.69 in 10.0 mi WNW 5.8 mph - N/A   Clear
11:53 PM 73.9 °F 50.0 °F 43% 29.69 in 10.0 mi North 5.8 mph - N/A   Clear